Weather History for Hickory, NC

Change the Weather History Date:

Sunday, August 3, 2014

  Actual Average Record
Temperature  
Mean Temperature 74 °F -  
Max Temperature 86 °F 86 °F 96 °F (1953)
Min Temperature 62 °F 67 °F 57 °F (1998)
Cooling Degree Days 9    
Growing Degree Days 24 (Base 50)    
Moisture  
Dew Point 63 °F    
Average Humidity 83    
Maximum Humidity 100    
Minimum Humidity 40    
Precipitation  
Precipitation 0.00 in - - ()
Sea Level Pressure  
Sea Level Pressure 30.08 in    
Wind  
Wind Speed 1 mph (NW)    
Max Wind Speed 6 mph    
Max Gust Speed -    
Visibility 6 miles    
Events Fog    
Averages and records for this station are not official NWS values.
T = Trace of Precipitation, MM = Missing Value Source: NWS Daily Summary

Daily Weather History Graph

Daily Weather History Graph

Search for Another Location

Airport:

Trip Planner

Search our weather history database for the weather conditions in past years. The results will help you decide how hot, cold, wet, or windy it might be!

Date:

Astronomy

Aug. 03, 2014 Rise Set
Actual Time 6:34 AM EDT 8:27 PM EDT
Civil Twilight 6:06 AM EDT 8:55 PM EDT
Nautical Twilight 5:33 AM EDT 9:29 PM EDT
Astronomical Twilight 4:56 AM EDT 10:05 PM EDT
Moon 1:38 PM EDT (8/3) 12:01 AM EDT (8/3)
Length of Visible Light 14h 48m
Length of Day
13h 52m
Waxing Crescent, 46% of the Moon is Illuminated
Aug 3
Waxing Crescent
Aug 3
First Quarter
Aug 10
Full
Aug 17
Last Quarter
Aug 25
New

Hourly Weather History & Observations

Time (EDT) Temp. Heat Index Dew Point Humidity Pressure Visibility Wind Dir Wind Speed Gust Speed Precip Events Conditions
12:36 AM 66.2 °F - 64.4 °F 94% 30.15 in 9.0 mi Calm Calm - N/A   Overcast
12:53 AM 68.0 °F - 64.9 °F 90% 30.09 in 8.0 mi Calm Calm - N/A   Overcast
1:38 AM 68.0 °F - 64.4 °F 88% 30.14 in 8.0 mi Calm Calm - N/A   Overcast
1:53 AM 66.9 °F - 64.9 °F 93% 30.08 in 7.0 mi Calm Calm - N/A   Overcast
2:53 AM 66.0 °F - 64.0 °F 93% 30.08 in 5.0 mi Calm Calm - N/A   Mostly Cloudy
3:01 AM 66.2 °F - 64.4 °F 94% 30.13 in 6.0 mi Calm Calm - N/A   Mostly Cloudy
3:08 AM 66.2 °F - 64.4 °F 94% 30.13 in 6.0 mi Calm Calm - N/A   Mostly Cloudy
3:33 AM 66.2 °F - 64.4 °F 94% 30.12 in 5.0 mi Calm Calm - N/A   Overcast
4:03 AM 66.2 °F - 64.4 °F 94% 30.11 in 6.0 mi Calm Calm - N/A   Overcast
4:53 AM 64.9 °F - 64.0 °F 97% 30.06 in 4.0 mi Calm Calm - N/A   Clear
5:20 AM 62.6 °F - 62.6 °F 100% 30.11 in 2.0 mi Calm Calm - N/A   Clear
5:31 AM 64.4 °F - 62.6 °F 94% 30.11 in 3.0 mi Calm Calm - N/A   Clear
5:39 AM 64.4 °F - 62.6 °F 94% 30.11 in 2.5 mi Calm Calm - N/A   Partly Cloudy
5:46 AM 64.4 °F - 62.6 °F 94% 30.11 in 1.0 mi Calm Calm - N/A   Mist
5:53 AM 64.0 °F - 63.0 °F 96% 30.06 in 1.0 mi Calm Calm - N/A   Mist
6:11 AM 62.6 °F - 62.6 °F 100% 30.12 in 0.2 mi Calm Calm - N/A Fog Fog
6:41 AM 62.6 °F - 62.6 °F 100% 30.12 in 0.2 mi Calm Calm - N/A Fog Fog
6:50 AM 62.6 °F - 62.6 °F 100% 30.12 in 0.2 mi Calm Calm - N/A Fog Fog
6:53 AM 63.0 °F - 62.1 °F 97% 30.06 in 0.2 mi Calm Calm - N/A Fog Fog
7:13 AM 64.4 °F - 62.6 °F 94% 30.12 in 0.2 mi Calm Calm - N/A Fog Fog
7:53 AM 64.0 °F - 64.0 °F 100% 30.08 in 0.2 mi West 3.5 mph - N/A Fog Fog
8:45 AM 66.2 °F - 64.4 °F 94% 30.12 in 0.2 mi WNW 5.8 mph - N/A Fog Fog
8:53 AM 66.0 °F - 64.9 °F 96% 30.07 in 0.5 mi WNW 5.8 mph - N/A Fog Fog
9:05 AM 66.2 °F - 66.2 °F 100% 30.13 in 1.5 mi Calm Calm - N/A   Overcast
9:13 AM 66.2 °F - 66.2 °F 100% 30.13 in 3.0 mi Calm Calm - N/A   Overcast
9:53 AM 69.1 °F - 66.0 °F 90% 30.08 in 10.0 mi Calm Calm - N/A   Mostly Cloudy
10:17 AM 71.6 °F - 64.4 °F 78% 30.14 in 10.0 mi Calm Calm - N/A   Scattered Clouds
10:53 AM 73.9 °F - 66.0 °F 76% 30.09 in 10.0 mi Calm Calm - N/A   Clear
11:53 AM 78.1 °F - 63.0 °F 60% 30.09 in 10.0 mi Calm Calm - N/A   Clear
12:53 PM 82.0 °F 82.4 °F 60.1 °F 47% 30.07 in 10.0 mi Variable 4.6 mph - N/A   Clear
1:53 PM 82.0 °F 82.7 °F 61.0 °F 49% 30.05 in 10.0 mi Calm Calm - N/A   Clear
2:53 PM 82.9 °F 83.3 °F 61.0 °F 47% 30.03 in 10.0 mi ENE 3.5 mph - N/A   Partly Cloudy
3:53 PM 86.0 °F 85.4 °F 59.0 °F 40% 30.00 in 10.0 mi Variable 4.6 mph - N/A   Partly Cloudy
4:53 PM 84.9 °F 84.4 °F 59.0 °F 41% 30.00 in 10.0 mi Calm Calm - N/A   Clear
5:53 PM 82.0 °F 82.7 °F 61.0 °F 49% 30.00 in 10.0 mi Calm Calm - N/A   Overcast
6:53 PM 81.0 °F 82.2 °F 63.0 °F 54% 29.99 in 10.0 mi Calm Calm - N/A   Partly Cloudy
7:53 PM 80.1 °F 81.2 °F 62.1 °F 54% 30.00 in 10.0 mi Calm Calm - N/A   Clear
8:53 PM 77.0 °F - 64.0 °F 64% 30.01 in 10.0 mi Calm Calm - N/A   Clear
10:53 PM 73.0 °F - 66.0 °F 79% 30.04 in 10.0 mi Calm Calm - N/A   Partly Cloudy
11:53 PM 70.0 °F - 66.0 °F 87% 30.04 in 10.0 mi North 5.8 mph - N/A   Clear